Weather History for Blytheville Muni Airport, AR

Change the Weather History Date:

Friday, February 24, 2012

  Actual Average Record
Temperature  
Mean Temperature 44 °F -  
Max Temperature 53 °F 54 °F 78 °F (1930)
Min Temperature 33 °F 36 °F 16 °F (1967)
Degree Days  
Heating Degree Days 20    
Moisture  
Dew Point 28 °F    
Average Humidity 50    
Maximum Humidity 72    
Minimum Humidity 32    
Precipitation  
Precipitation 0.00 in - - ()
Sea Level Pressure  
Sea Level Pressure 30.00 in    
Wind  
Wind Speed 15 mph (NW)    
Max Wind Speed 25 mph    
Max Gust Speed 34 mph    
Visibility 10 miles    
Events      
Averages and records for this station are not official NWS values.
T = Trace of Precipitation, MM = Missing Value Source: NWS Daily Summary

Daily Weather History Graph

Daily Weather History Graph

Search for Another Location

Airport:

Trip Planner

Search our weather history database for the weather conditions in past years. The results will help you decide how hot, cold, wet, or windy it might be!

Date:

Astronomy

Feb. 24, 2012 Rise Set
Actual Time 6:36 AM CST 5:49 PM CST
Civil Twilight 6:10 AM CST 6:15 PM CST
Nautical Twilight 5:40 AM CST 6:44 PM CST
Astronomical Twilight 5:11 AM CST 7:14 PM CST
Moon 7:38 AM CST (2/24) 8:44 PM CST (2/24)
Length of Visible Light 12h 04m
Length of Day
11h 12m
Waxing Crescent, 8% of the Moon is Illuminated
Feb 24
Waxing Crescent
Feb 29
First Quarter
Mar 8
Full
Mar 14
Last Quarter
Mar 22
New

Hourly Weather History & Observations

Time (CST) Temp. Windchill Dew Point Humidity Pressure Visibility Wind Dir Wind Speed Gust Speed Precip Events Conditions
12:53 AM 51.1 °F - 41.0 °F 68% 29.61 in 10.0 mi NW 5.8 mph - N/A   Clear
1:53 AM 52.0 °F - 37.0 °F 57% 29.67 in 10.0 mi NW 18.4 mph 28.8 mph N/A   Clear
2:53 AM 48.0 °F - 36.0 °F 63% 29.69 in 10.0 mi WNW 11.5 mph - N/A   Clear
3:53 AM 48.9 °F - 30.9 °F 50% 29.73 in 10.0 mi WNW 18.4 mph 25.3 mph N/A   Overcast
4:53 AM 48.0 °F - 30.9 °F 52% 29.78 in 10.0 mi WNW 16.1 mph - N/A   Overcast
5:53 AM 46.0 °F 37.8 °F 27.0 °F 47% 29.82 in 10.0 mi NW 23.0 mph 31.1 mph N/A   Overcast
6:53 AM 44.1 °F 36.8 °F 28.0 °F 53% 29.88 in 10.0 mi West 16.1 mph 25.3 mph N/A   Overcast
7:53 AM 44.1 °F 35.2 °F 28.9 °F 55% 29.94 in 10.0 mi WNW 23.0 mph 28.8 mph N/A   Clear
8:53 AM 45.0 °F 36.6 °F 28.0 °F 52% 29.98 in 10.0 mi WNW 21.9 mph 32.2 mph N/A   Clear
9:53 AM 48.0 °F - 28.9 °F 48% 30.02 in 10.0 mi NW 25.3 mph 33.4 mph N/A   Clear
10:53 AM 48.9 °F - 28.0 °F 44% 30.04 in 10.0 mi NW 21.9 mph 34.5 mph N/A   Scattered Clouds
11:53 AM 48.0 °F - 28.0 °F 46% 30.07 in 10.0 mi NW 23.0 mph 31.1 mph N/A   Mostly Cloudy
12:53 PM 48.0 °F - 28.0 °F 46% 30.08 in 10.0 mi NW 21.9 mph 27.6 mph N/A   Scattered Clouds
1:53 PM 52.0 °F - 28.0 °F 40% 30.08 in 10.0 mi NW 18.4 mph 27.6 mph N/A   Scattered Clouds
2:53 PM 51.1 °F - 24.1 °F 35% 30.09 in 10.0 mi WNW 16.1 mph - N/A   Partly Cloudy
3:53 PM 53.1 °F - 24.1 °F 32% 30.09 in 10.0 mi NNW 20.7 mph 25.3 mph N/A   Clear
4:53 PM 50.0 °F - 21.9 °F 33% 30.11 in 10.0 mi NW 13.8 mph 21.9 mph N/A   Partly Cloudy
5:53 PM 48.0 °F - 21.0 °F 34% 30.13 in 10.0 mi NW 16.1 mph - N/A   Partly Cloudy
6:53 PM 45.0 °F 38.9 °F 21.9 °F 40% 30.17 in 10.0 mi NW 12.7 mph - N/A   Clear
7:53 PM 43.0 °F 37.7 °F 24.1 °F 47% 30.19 in 10.0 mi NW 9.2 mph - N/A   Clear
8:53 PM 37.9 °F 32.1 °F 25.0 °F 60% 30.21 in 10.0 mi WNW 8.1 mph - N/A   Clear
9:53 PM 37.0 °F 31.0 °F 25.0 °F 62% 30.23 in 10.0 mi West 8.1 mph - N/A   Clear
10:53 PM 36.0 °F 30.3 °F 25.0 °F 64% 30.23 in 10.0 mi West 6.9 mph - N/A   Clear
11:53 PM 33.1 °F 26.1 °F 25.0 °F 72% 30.24 in 10.0 mi WNW 8.1 mph - N/A   Clear